Tracking 29528 objects as of 12-Sep-2024
HD Live streaming from Space Station
objects crossing your sky now

COSMOS 249 DEB

Track COSMOS 249 DEB now!
10-day predictions


NORAD ID: 19317
Int'l Code: 1968-091DH
Perigee: 525.9 km
Apogee: 1,701.2 km
Inclination: 62.8 °
Period: 107.4 minutes
Semi major axis: 7484 km
RCS: 0.0014 m2 (small)
Launch date: October 20, 1968
Source: Commonwealth of Independent States (former USSR) (CIS)
Launch site: TYURATAM MISSILE AND SPACE COMPLEX (TTMTR)

Note: This is SATELLITE DEBRIS
Your satellite tracking list
Your tracking list is empty




NASA's NSSDC Master Catalog

Two Line Element Set (TLE):
1 19317U 68091DH  24256.12829921  .00002583  00000-0  73404-3 0  9997
2 19317  62.8348 175.9923 0785157 141.0331 225.0057 13.40778295774191
Source of the keplerian elements: AFSPC